Date String (YYYY-MM-DD hh:mm:ss) UTC,Instrument flags,Ambient pressure (hPa),Sample flow (lpm),Bypass flow (lpm),Sample temperature (°C),Ambient temperature (°C),ASC tube jacket temperature (°C),LED temperature (°C),Box temperature (°C),Sample RH (%),Span deviation,Mass concentration (μg/m³),Mass concentration (μg/m³),Mass concentration (μg/m³)
DateTimeUTC,F1_M11,P_M11,Q1_M11,Q2_M11,T1_M11,T2_M11,T3_M11,T4_M11,T5_M11,U1_M11,ZSPAN_M11,X0_M11,X2_M11,X1_M11
2022-11-14 08:00:00,,0825.8,5.00,0.00,22.7,21.3,00.0,31.5,24.5,11.1,0000.0,0004.80,0003.45,0003.25
2022-11-14 08:01:00,,0825.9,5.01,0.00,22.7,21.3,00.0,31.5,24.5,11.2,0000.0,0004.82,0003.47,0003.28
2022-11-14 08:02:00,,0825.7,4.98,0.00,22.7,21.3,00.0,31.5,24.5,11.2,0000.0,0005.01,0003.51,0003.30
2022-11-14 08:03:00,,0825.7,5.01,0.00,22.6,21.2,00.0,31.5,24.5,11.2,0000.0,0005.20,0003.54,0003.33
2022-11-14 08:04:00,,0825.7,4.99,0.00,22.6,21.2,00.0,31.5,24.4,11.2,0000.0,0006.66,0003.54,0003.34
2022-11-14 08:05:00,,0825.7,5.01,0.00,22.6,21.2,00.0,31.5,24.4,11.2,0000.0,0006.79,0003.57,0003.35
2022-11-14 08:06:00,,0825.7,4.99,0.00,22.6,21.2,00.0,31.5,24.4,11.2,0000.0,0006.83,0003.60,0003.36
2022-11-14 08:07:00,,0825.7,5.00,0.00,22.6,21.2,00.0,31.5,24.4,11.2,0000.0,0006.93,0003.61,0003.36
2022-11-14 08:08:00,,0825.7,4.99,0.00,22.6,21.2,00.0,31.5,24.4,11.2,0000.0,0006.96,0003.62,0003.37
2022-11-14 08:09:00,,0825.7,5.01,0.00,22.6,21.1,00.0,31.5,24.4,11.2,0000.0,0007.00,0003.63,0003.38
2022-11-14 08:10:00,,0825.7,5.00,0.00,22.6,21.1,00.0,31.5,24.4,11.2,0000.0,0007.07,0003.65,0003.38
2022-11-14 08:11:00,,0825.7,5.00,0.00,22.6,21.1,00.0,31.5,24.4,11.2,0000.0,0007.01,0003.62,0003.35
2022-11-14 08:12:00,,0825.6,5.02,0.00,22.5,21.1,00.0,31.5,24.4,11.2,0000.0,0006.99,0003.60,0003.33
2022-11-14 08:13:00,,0825.6,4.99,0.00,22.5,21.1,00.0,31.5,24.3,11.2,0000.0,0006.87,0003.56,0003.30
2022-11-14 08:14:00,,0825.6,5.01,0.00,22.5,21.1,00.0,31.4,24.3,11.2,0000.0,0006.85,0003.54,0003.28
2022-11-14 08:15:00,,0825.6,4.98,0.00,22.5,21.0,00.0,31.4,24.3,11.2,0000.0,0006.25,0003.56,0003.27
2022-11-14 08:16:00,,0825.6,5.00,0.00,22.5,21.1,00.0,31.4,24.4,11.3,0000.0,0005.90,0003.54,0003.26
2022-11-14 08:17:00,,0825.6,5.00,0.00,22.6,21.7,00.0,31.4,24.5,11.2,0000.0,0005.67,0003.50,0003.24
2022-11-14 08:18:00,,0825.5,5.01,0.00,22.6,22.3,00.0,31.3,24.7,11.2,0000.0,0005.56,0003.49,0003.24
2022-11-14 08:19:00,,0825.5,5.01,0.00,22.7,22.2,00.0,31.4,24.7,11.2,0000.0,0005.46,0003.46,0003.23
2022-11-14 08:20:00,,0825.5,5.00,0.00,22.7,22.0,00.0,31.4,24.7,11.2,0000.0,0005.45,0003.46,0003.22
2022-11-14 08:21:00,,0825.5,4.99,0.00,22.7,21.8,00.0,31.4,24.7,11.2,0000.0,0005.39,0003.44,0003.22
2022-11-14 08:22:00,,0825.5,5.01,0.00,22.7,21.7,00.0,31.4,24.6,11.2,0000.0,0005.38,0003.45,0003.23
2022-11-14 08:23:00,,0825.5,5.00,0.00,22.7,21.6,00.0,31.5,24.6,11.2,0000.0,0005.68,0003.46,0003.25
2022-11-14 08:24:00,,0825.5,5.00,0.00,22.7,21.5,00.0,31.5,24.5,11.2,0000.0,0006.10,0003.49,0003.26
2022-11-14 08:25:00,,0825.5,5.01,0.00,22.7,21.4,00.0,31.5,24.5,11.2,0000.0,0006.13,0003.50,0003.26
2022-11-14 08:26:00,,0825.5,4.99,0.00,22.7,21.3,00.0,31.5,24.5,11.2,0000.0,0005.33,0003.49,0003.27
2022-11-14 08:27:00,,0825.5,5.01,0.00,22.6,21.3,00.0,31.5,24.5,11.2,0000.0,0005.32,0003.50,0003.27
2022-11-14 08:28:00,,0825.5,4.98,0.00,22.6,21.3,00.0,31.5,24.5,11.2,0000.0,0005.26,0003.49,0003.27
2022-11-14 08:29:00,,0825.5,5.00,0.00,22.6,21.2,00.0,31.5,24.5,11.2,0000.0,0005.99,0003.46,0003.26
2022-11-14 08:30:00,,0825.5,5.00,0.00,22.6,21.2,00.0,31.5,24.5,11.2,0000.0,0006.05,0003.45,0003.24
2022-11-14 08:31:00,,0825.5,5.01,0.00,22.6,21.1,00.0,31.4,24.4,11.2,0000.0,0006.11,0003.44,0003.24
2022-11-14 08:32:00,,0825.5,5.00,0.00,22.6,21.1,00.0,31.4,24.4,11.3,0000.0,0006.14,0003.44,0003.23
2022-11-14 08:33:00,,0825.5,4.99,0.00,22.6,21.1,00.0,31.4,24.4,11.2,0000.0,0006.21,0003.43,0003.21
2022-11-14 08:34:00,,0825.4,5.02,0.00,22.6,21.1,00.0,31.4,24.4,11.2,0000.0,0006.18,0003.44,0003.20
2022-11-14 08:35:00,,0825.4,4.98,0.00,22.6,21.1,00.0,31.4,24.4,11.2,0000.0,0005.97,0003.43,0003.19
2022-11-14 08:36:00,,0825.4,5.01,0.00,22.5,21.0,00.0,31.4,24.4,11.2,0000.0,0007.16,0003.41,0003.18
2022-11-14 08:37:00,,0825.4,5.01,0.00,22.5,21.0,00.0,31.4,24.4,11.2,0000.0,0007.89,0003.39,0003.17
2022-11-14 08:38:00,,0825.4,5.01,0.00,22.5,21.0,00.0,31.4,24.4,11.2,0000.0,0007.85,0003.37,0003.17
2022-11-14 08:39:00,,0825.4,4.98,0.00,22.5,21.0,00.0,31.4,24.3,11.3,0000.0,0007.99,0003.36,0003.16
2022-11-14 08:40:00,,0825.4,5.02,0.00,22.5,21.0,00.0,31.3,24.3,11.3,0000.0,0008.37,0003.38,0003.15
2022-11-14 08:41:00,,0825.4,4.99,0.00,22.5,21.0,00.0,31.3,24.3,11.2,0000.0,0008.11,0003.40,0003.15
2022-11-14 08:42:00,,0825.4,4.99,0.00,22.5,21.6,00.0,31.3,24.5,11.2,0000.0,0008.22,0003.40,0003.14
2022-11-14 08:43:00,,0825.4,5.01,0.00,22.6,22.4,00.0,31.3,24.7,11.2,0000.0,0008.65,0003.39,0003.13
2022-11-14 08:44:00,,0825.4,5.00,0.00,22.7,22.3,00.0,31.3,24.7,11.2,0000.0,0008.99,0003.39,0003.12
2022-11-14 08:45:00,,0825.3,4.99,0.00,22.7,22.1,00.0,31.4,24.7,11.1,0000.0,0008.86,0003.36,0003.12
2022-11-14 08:46:00,,0825.3,4.99,0.00,22.7,21.9,00.0,31.4,24.7,11.1,0000.0,0008.92,0003.37,0003.12
2022-11-14 08:47:00,,0825.3,5.01,0.00,22.7,21.7,00.0,31.4,24.6,11.1,0000.0,0008.37,0003.37,0003.12
2022-11-14 08:48:00,,0825.3,5.01,0.00,22.7,21.6,00.0,31.4,24.6,11.1,0000.0,0007.52,0003.39,0003.12
2022-11-14 08:49:00,,0825.3,4.99,0.00,22.7,21.5,00.0,31.5,24.5,11.0,0000.0,0007.50,0003.38,0003.12
2022-11-14 08:50:00,,0825.3,4.99,0.00,22.7,21.4,00.0,31.5,24.5,11.0,0000.0,0007.40,0003.38,0003.11
2022-11-14 08:51:00,,0825.3,5.01,0.00,22.6,21.4,00.0,31.5,24.5,11.0,0000.0,0007.53,0003.37,0003.11
2022-11-14 08:52:00,,0825.4,5.01,0.00,22.6,21.3,00.0,31.5,24.5,11.0,0000.0,0007.70,0003.33,0003.09
2022-11-14 08:53:00,,0825.4,5.00,0.00,22.6,21.3,00.0,31.5,24.5,11.0,0000.0,0007.59,0003.30,0003.07
2022-11-14 08:54:00,,0825.3,5.00,0.00,22.6,21.2,00.0,31.5,24.4,11.0,0000.0,0007.04,0003.29,0003.08
2022-11-14 08:55:00,,0825.4,4.99,0.00,22.6,21.2,00.0,31.5,24.4,11.0,0000.0,0006.63,0003.29,0003.07
2022-11-14 08:56:00,,0825.4,5.01,0.00,22.6,21.2,00.0,31.5,24.4,11.0,0000.0,0006.70,0003.28,0003.07
2022-11-14 08:57:00,,0825.4,5.00,0.00,22.6,21.2,00.0,31.5,24.4,11.0,0000.0,0006.59,0003.26,0003.06
2022-11-14 08:58:00,,0825.3,4.99,0.00,22.6,21.1,00.0,31.5,24.4,11.0,0000.0,0006.55,0003.26,0003.05
2022-11-14 08:59:00,,0825.4,5.00,0.00,22.6,21.1,00.0,31.4,24.4,11.0,0000.0,0006.59,0003.25,0003.06
